Flag for U.S.A. Weather past 2 weeks in Sioux Falls, South Dakota, U.S.A.

Now
50 °F

Overcast.


Feels Like: 45 °F
Forecast: 44 / 58 °F
Wind: 14 mph from East

Location: Foss Field

Current Time: Apr 25, 2015 at 11:48:22 AM

Latest Report: Apr 25, 2015 at 10:56 AM


Visibility: 7 mi

Pressure: 29.74 "Hg

Humidity: 74%

Dew point: 42 °F

Location of Sioux FallsLocation

Historic Weather in Sioux Falls — Graph

°F

Sioux Falls temperature yesterday

Maximum temperature yesterday: 73 °F (at 4:56 PM)
Minimum temperature yesterday: 49 °F (at 6:56 AM)
Average temperature yesterday: 58 °F

Past Weeks' High & Low Weather Summary

 TemperatureHumidityPressure
High75 °F (Apr 12, 4:56 PM)97% (Apr 19, 3:56 AM)30.21 "Hg (Apr 19, 3:56 AM)
Low26 °F (Apr 22, 5:56 AM)14% (Apr 13, 4:56 PM)29.51 "Hg (Apr 24, 4:56 PM)
Average53 °F51%29.93 "Hg
* Reported Apr 10 10:56 AM — Apr 25 10:56 AM, Sioux Falls, Weather by CustomWeather, © 2015

Note: Actual official high and low records may vary slightly from our data, if they occured in-between our weather recording intervals... More about our weather records

Advertising

Sioux Falls weather history for previous 24 hours

 ConditionsComfort  
Time TempWeatherWind HumidityBarometerVisibility
10:56 AM
Sat, Apr 25
50 °FOvercast.14 mph74%29.74 "Hg7 mi
9:56 AM47 °FMostly cloudy.16 mph77%29.74 "Hg7 mi
8:56 AM46 °FOvercast.17 mph83%29.73 "Hg7 mi
7:56 AM45 °FMore clouds than sun.16 mph86%29.70 "Hg8 mi
6:56 AM45 °FMostly cloudy.17 mph90%29.66 "Hg7 mi
5:56 AM46 °FLow clouds.15 mph86%29.63 "Hg8 mi
4:56 AM46 °FLow clouds.14 mph89%29.61 "Hg7 mi
3:56 AM47 °FOvercast.13 mph90%29.61 "Hg7 mi
2:56 AM47 °FFog.15 mph93%29.62 "Hg6 mi
1:56 AM48 °FRain. Fog.14 mph93%29.64 "Hg4 mi
12:56 AM49 °FHeavy rain. Fog.18 mph97%29.65 "Hg3 mi
11:56 PM
Fri, Apr 24
52 °FOvercast.12 mph83%29.61 "Hg10 mi
10:56 PM53 °FPartly cloudy.18 mph83%29.60 "Hg10 mi
9:56 PM54 °FPassing clouds.17 mph80%29.60 "Hg10 mi
8:56 PM57 °FSunny.17 mph72%29.58 "Hg10 mi
7:56 PM61 °FScattered clouds.22 mph67%29.55 "Hg10 mi
5:56 PM73 °FPartly sunny.12 mph46%29.51 "Hg10 mi
4:56 PM73 °FPartly sunny.15 mph46%29.51 "Hg10 mi
3:56 PM72 °FMore clouds than sun.16 mph49%29.53 "Hg10 mi
2:56 PM68 °FOvercast.13 mph53%29.57 "Hg10 mi
1:56 PM65 °FOvercast.14 mph59%29.60 "Hg10 mi
12:56 PM61 °FOvercast.15 mph62%29.62 "Hg10 mi
11:56 AM60 °FOvercast.14 mph62%29.65 "Hg10 mi
Weather by CustomWeather, © 2015

See weather overviewHow to use our weather pages